| time (UTC) | temp F | wind direction | speed knots | gust knots | rain 1hr in | rain 24hr in | rain mn in | humidity % | barometer mb |
| 20260509145909 | 69 | 240 | 1.7 | 2.6 | 0.00 | 0.00 | 0.00 | 67 | 1016.0 |
| 20260509144908 | 70 | 235 | 1.7 | 2.6 | 0.00 | 0.00 | 0.00 | 67 | 1016.0 |
| 20260509143407 | 70 | 238 | 1.7 | 2.6 | 0.00 | 0.00 | 0.00 | 64 | 1015.9 |
| 20260509142908 | 70 | 227 | 1.7 | 2.6 | 0.00 | 0.00 | 0.00 | 67 | 1015.9 |
| 20260509142408 | 70 | 244 | 1.7 | 2.6 | 0.00 | 0.00 | 0.00 | 66 | 1016.0 |
| 20260509141909 | 69 | 201 | 1.7 | 2.6 | 0.00 | 0.00 | 0.00 | 64 | 1016.0 |
| 20260509141407 | 70 | 245 | 1.7 | 2.6 | 0.00 | 0.00 | 0.00 | 63 | 1015.9 |
| 20260509140908 | 70 | 237 | 1.7 | 2.6 | 0.00 | 0.00 | 0.00 | 63 | 1015.8 |
| 20260509140409 | 69 | 234 | 1.7 | 2.6 | 0.00 | 0.00 | 0.00 | 61 | 1015.8 |
| 20260509135910 | 70 | 234 | 1.7 | 2.6 | 0.00 | 0.00 | 0.00 | 62 | 1015.8 |
| 20260509135408 | 70 | 226 | 1.7 | 2.6 | 0.00 | 0.00 | 0.00 | 59 | 1015.8 |
| 20260509134409 | 70 | 230 | 2.6 | 2.6 | 0.00 | 0.00 | 0.00 | 58 | 1016.0 |
| 20260509133909 | 71 | 228 | 1.7 | 2.6 | 0.00 | 0.00 | 0.00 | 58 | 1015.9 |
| 20260509132408 | 69 | 234 | 2.6 | 2.6 | 0.00 | 0.00 | 0.00 | 60 | 1016.0 |
| 20260509130407 | 69 | 235 | 2.6 | 4.3 | 0.00 | 0.00 | 0.00 | 63 | 1016.1 |
| 20260509124908 | 70 | 234 | 1.7 | 2.6 | 0.00 | 0.00 | 0.00 | 63 | 1016.1 |
| 20260509124408 | 70 | 235 | 2.6 | 2.6 | 0.00 | 0.00 | 0.00 | 64 | 1016.1 |
| 20260509123908 | 70 | 221 | 1.7 | 2.6 | 0.00 | 0.00 | 0.00 | 62 | 1016.1 |
| 20260509123408 | 70 | 242 | 1.7 | 2.6 | 0.00 | 0.00 | 0.00 | 63 | 1016.2 |
| 20260509122410 | 70 | 232 | 1.7 | 2.6 | 0.00 | 0.00 | 0.00 | 64 | 1016.1 |
| 20260509121908 | 70 | 240 | 1.7 | 2.6 | 0.00 | 0.00 | 0.00 | 63 | 1016.2 |
| 20260509121409 | 70 | 227 | 1.7 | 2.6 | 0.00 | 0.00 | 0.00 | 64 | 1016.3 |
| 20260509120908 | 70 | 222 | 1.7 | 2.6 | 0.00 | 0.00 | 0.00 | 64 | 1016.3 |
| 20260509120408 | 70 | 72 | 1.7 | 2.6 | 0.00 | 0.00 | 0.00 | 62 | 1016.4 |
| 20260509115907 | 70 | 279 | 0.9 | 2.6 | 0.00 | 0.00 | 0.00 | 66 | 1016.4 |
| 20260509115408 | 69 | 281 | 0.9 | 2.6 | 0.00 | 0.00 | 0.00 | 67 | 1016.4 |
| 20260509114908 | 69 | 183 | 0.9 | 2.6 | 0.00 | 0.00 | 0.00 | 68 | 1016.4 |
| 20260509114408 | 69 | 224 | 2.6 | 4.3 | 0.00 | 0.00 | 0.00 | 66 | 1016.4 |
| 20260509113908 | 69 | 240 | 1.7 | 2.6 | 0.00 | 0.00 | 0.00 | 67 | 1016.4 |
| 20260509113408 | 69 | 230 | 1.7 | 5.2 | 0.00 | 0.00 | 0.00 | 65 | 1016.4 |
| 20260509112908 | 70 | 218 | 2.6 | 2.6 | 0.00 | 0.00 | 0.00 | 63 | 1016.4 |
| 20260509112410 | 69 | 228 | 1.7 | 2.6 | 0.00 | 0.00 | 0.00 | 64 | 1016.3 |
| 20260509111908 | 69 | 214 | 3.5 | 11.3 | 0.00 | 0.00 | 0.00 | 63 | 1016.4 |
| 20260509111407 | 69 | 238 | 1.7 | 2.6 | 0.00 | 0.00 | 0.00 | 65 | 1016.3 |
| 20260509110907 | 69 | 227 | 1.7 | 4.3 | 0.00 | 0.00 | 0.00 | 68 | 1016.3 |
| 20260509110408 | 68 | 222 | 2.6 | 2.6 | 0.00 | 0.00 | 0.00 | 68 | 1016.4 |
| 20260509105908 | 68 | 230 | 1.7 | 2.6 | 0.00 | 0.00 | 0.00 | 68 | 1016.4 |
| 20260509105408 | 68 | 246 | 1.7 | 2.6 | 0.00 | 0.00 | 0.00 | 68 | 1016.4 |
| 20260509104906 | 68 | 232 | 1.7 | 2.6 | 0.00 | 0.00 | 0.00 | 70 | 1016.4 |
| 20260509104408 | 68 | 233 | 1.7 | 2.6 | 0.00 | 0.00 | 0.00 | 70 | 1016.5 |
| 20260509103408 | 68 | 229 | 2.6 | 2.6 | 0.00 | 0.00 | 0.00 | 70 | 1016.5 |
| 20260509102408 | 67 | 222 | 1.7 | 2.6 | 0.00 | 0.00 | 0.00 | 70 | 1016.3 |
| 20260509101908 | 67 | 229 | 2.6 | 2.6 | 0.00 | 0.00 | 0.00 | 71 | 1016.4 |
| 20260509101408 | 67 | 240 | 1.7 | 4.3 | 0.00 | 0.01 | 0.00 | 72 | 1016.3 |
| 20260509100909 | 66 | 241 | 1.7 | 2.6 | 0.00 | 0.01 | 0.00 | 70 | 1016.4 |
| 20260509095908 | 65 | 224 | 2.6 | 2.6 | 0.00 | 0.01 | 0.00 | 71 | 1016.3 |
| 20260509095408 | 65 | 236 | 2.6 | 2.6 | 0.00 | 0.01 | 0.00 | 70 | 1016.3 |
| 20260509094907 | 65 | 238 | 2.6 | 2.6 | 0.00 | 0.01 | 0.00 | 71 | 1016.4 |
| 20260509093908 | 66 | 239 | 2.6 | 2.6 | 0.00 | 0.01 | 0.00 | 68 | 1016.4 |
| 20260509093408 | 66 | 243 | 1.7 | 4.3 | 0.00 | 0.01 | 0.00 | 69 | 1016.4 |
| 20260509092908 | 66 | 222 | 1.7 | 4.3 | 0.00 | 0.01 | 0.00 | 68 | 1016.4 |
| 20260509092407 | 66 | 225 | 1.7 | 2.6 | 0.00 | 0.01 | 0.00 | 71 | 1016.4 |
| 20260509091908 | 66 | 232 | 1.7 | 2.6 | 0.00 | 0.01 | 0.00 | 72 | 1016.5 |
| 20260509091408 | 65 | 243 | 1.7 | 2.6 | 0.00 | 0.01 | 0.00 | 74 | 1016.5 |
| 20260509090908 | 64 | 222 | 2.6 | 2.6 | 0.00 | 0.01 | 0.00 | 76 | 1016.5 |
| 20260509090408 | 64 | 218 | 2.6 | 2.6 | 0.00 | 0.01 | 0.00 | 76 | 1016.5 |
| 20260509085908 | 64 | 221 | 2.6 | 4.3 | 0.00 | 0.01 | 0.00 | 78 | 1016.6 |
| 20260509085407 | 64 | 231 | 1.7 | 2.6 | 0.00 | 0.01 | 0.00 | 78 | 1016.6 |
| 20260509084907 | 64 | 229 | 2.6 | 2.6 | 0.00 | 0.01 | 0.00 | 79 | 1016.7 |
| 20260509083908 | 64 | 216 | 2.6 | 2.6 | 0.00 | 0.01 | 0.00 | 79 | 1016.8 |
| 20260509083407 | 64 | 231 | 1.7 | 2.6 | 0.00 | 0.01 | 0.00 | 78 | 1016.8 |
| 20260509082908 | 64 | 243 | 2.6 | 2.6 | 0.00 | 0.01 | 0.00 | 79 | 1016.9 |
| 20260509082408 | 63 | 231 | 1.7 | 2.6 | 0.00 | 0.01 | 0.00 | 79 | 1016.9 |
| 20260509081908 | 63 | 222 | 2.6 | 2.6 | 0.00 | 0.01 | 0.00 | 79 | 1016.8 |
| 20260509081408 | 63 | 225 | 2.6 | 2.6 | 0.00 | 0.01 | 0.00 | 79 | 1016.7 |
| 20260509080408 | 63 | 227 | 1.7 | 2.6 | 0.00 | 0.01 | 0.00 | 81 | 1016.8 |
| 20260509075907 | 62 | 218 | 2.6 | 2.6 | 0.00 | 0.01 | 0.00 | 81 | 1016.8 |
| 20260509075408 | 62 | 217 | 1.7 | 2.6 | 0.00 | 0.01 | 0.00 | 82 | 1016.8 |
| 20260509074908 | 62 | 232 | 1.7 | 2.6 | 0.00 | 0.01 | 0.00 | 81 | 1016.8 |
| 20260509073408 | 62 | 228 | 1.7 | 2.6 | 0.00 | 0.01 | 0.00 | 80 | 1016.8 |
| 20260509072907 | 62 | 233 | 1.7 | 2.6 | 0.00 | 0.01 | 0.00 | 80 | 1016.8 |
| 20260509072407 | 62 | 240 | 1.7 | 2.6 | 0.00 | 0.01 | 0.00 | 79 | 1016.8 |
| 20260509071907 | 63 | 220 | 1.7 | 2.6 | 0.00 | 0.01 | 0.00 | 79 | 1016.9 |
| 20260509071408 | 63 | 224 | 1.7 | 2.6 | 0.00 | 0.01 | 0.00 | 79 | 1016.9 |
| 20260509070907 | 62 | 260 | 1.7 | 2.6 | 0.00 | 0.01 | 0.00 | 79 | 1016.7 |
| 20260509070407 | 62 | 258 | 2.6 | 2.6 | 0.00 | 0.01 | 0.00 | 80 | 1016.7 |
| 20260509065407 | 62 | 263 | 1.7 | 2.6 | 0.00 | 0.01 | 0.00 | 81 | 1016.7 |
| 20260509064909 | 62 | 250 | 1.7 | 2.6 | 0.00 | 0.01 | 0.00 | 82 | 1016.7 |
| 20260509064409 | 62 | 256 | 1.7 | 2.6 | 0.00 | 0.01 | 0.00 | 82 | 1016.7 |
| 20260509063908 | 62 | 267 | 1.7 | 2.6 | 0.00 | 0.01 | 0.00 | 82 | 1016.6 |
| 20260509062908 | 62 | 269 | 1.7 | 2.6 | 0.00 | 0.01 | 0.00 | 82 | 1016.6 |
| 20260509061909 | 61 | 245 | 1.7 | 2.6 | 0.00 | 0.01 | 0.00 | 83 | 1016.6 |
| 20260509060908 | 61 | 262 | 1.7 | 2.6 | 0.00 | 0.01 | 0.00 | 83 | 1016.6 |
| 20260509060408 | 61 | 271 | 2.6 | 2.6 | 0.00 | 0.01 | 0.00 | 83 | 1016.6 |
| 20260509055907 | 61 | 264 | 1.7 | 2.6 | 0.00 | 0.01 | 0.00 | 84 | 1016.6 |
| 20260509055408 | 61 | 272 | 1.7 | 2.6 | 0.00 | 0.01 | 0.00 | 84 | 1016.5 |
| 20260509054408 | 61 | 255 | 1.7 | 2.6 | 0.00 | 0.01 | 0.00 | 84 | 1016.4 |
| 20260509053407 | 61 | 263 | 1.7 | 2.6 | 0.00 | 0.01 | 0.00 | 84 | 1016.2 |
| 20260509052908 | 61 | 252 | 1.7 | 1.7 | 0.00 | 0.01 | 0.00 | 84 | 1016.3 |
| 20260509052408 | 60 | 242 | 0.9 | 1.7 | 0.00 | 0.01 | 0.00 | 84 | 1016.3 |
| 20260509051907 | 60 | 260 | 1.7 | 2.6 | 0.00 | 0.01 | 0.00 | 84 | 1016.3 |
| 20260509051407 | 60 | 262 | 1.7 | 2.6 | 0.00 | 0.01 | 0.00 | 84 | 1016.3 |
| 20260509050906 | 60 | 264 | 1.7 | 2.6 | 0.00 | 0.01 | 0.00 | 84 | 1016.3 |
| 20260509050408 | 61 | 269 | 0.9 | 2.6 | 0.00 | 0.01 | 0.00 | 83 | 1016.2 |
| 20260509045908 | 60 | 282 | 0.9 | 1.7 | 0.00 | 0.01 | 0.00 | 83 | 1016.2 |
| 20260509045407 | 60 | 293 | 0.9 | 2.6 | 0.00 | 0.01 | 0.00 | 83 | 1016.2 |
| 20260509044908 | 60 | 292 | 0.9 | 1.7 | 0.00 | 0.01 | 0.00 | 84 | 1016.2 |
| 20260509044409 | 60 | 282 | 1.7 | 2.6 | 0.00 | 0.01 | 0.00 | 84 | 1016.1 |
| 20260509043908 | 60 | 286 | 0.9 | 2.6 | 0.00 | 0.01 | 0.00 | 84 | 1016.1 |
| 20260509043408 | 60 | 295 | 1.7 | 2.6 | 0.00 | 0.01 | 0.00 | 84 | 1016.0 |
| 20260509042908 | 60 | 271 | 1.7 | 1.7 | 0.00 | 0.01 | 0.00 | 84 | 1016.1 |
| 20260509042407 | 60 | 269 | 0.9 | 2.6 | 0.00 | 0.01 | 0.00 | 84 | 1016.0 |
| 20260509041907 | 60 | 271 | 1.7 | 2.6 | 0.00 | 0.01 | 0.00 | 84 | 1016.0 |
| 20260509041407 | 60 | 263 | 1.7 | 2.6 | 0.00 | 0.01 | 0.00 | 84 | 1016.1 |
| 20260509040907 | 60 | 262 | 0.9 | 2.6 | 0.00 | 0.01 | 0.00 | 84 | 1016.0 |
| 20260509035907 | 60 | 260 | 1.7 | 2.6 | 0.00 | 0.01 | 0.00 | 84 | 1016.0 |
| 20260509035408 | 60 | 268 | 0.9 | 2.6 | 0.00 | 0.01 | 0.00 | 84 | 1016.0 |
| 20260509034907 | 60 | 265 | 0.9 | 2.6 | 0.00 | 0.01 | 0.00 | 84 | 1016.1 |
| 20260509034408 | 60 | 269 | 0.9 | 1.7 | 0.00 | 0.01 | 0.00 | 84 | 1016.1 |
| 20260509033908 | 60 | 269 | 1.7 | 2.6 | 0.00 | 0.01 | 0.00 | 84 | 1016.1 |
| 20260509033408 | 60 | 269 | 0.9 | 2.6 | 0.00 | 0.01 | 0.00 | 84 | 1016.2 |
| 20260509032907 | 60 | 268 | 1.7 | 2.6 | 0.00 | 0.01 | 0.00 | 84 | 1016.1 |
| 20260509032409 | 60 | 303 | 0.9 | 2.6 | 0.00 | 0.01 | 0.00 | 84 | 1016.1 |
| 20260509031908 | 60 | 307 | 0.9 | 1.7 | 0.00 | 0.01 | 0.00 | 84 | 1016.1 |
| 20260509031408 | 60 | 304 | 0.0 | 2.6 | 0.00 | 0.01 | 0.00 | 84 | 1016.1 |
| 20260509030907 | 60 | 304 | 0.0 | 1.7 | 0.00 | 0.01 | 0.00 | 85 | 1016.1 |
| 20260509030407 | 60 | 304 | 0.9 | 1.7 | 0.00 | 0.01 | 0.00 | 84 | 1016.0 |
| 20260509025908 | 60 | 304 | 0.0 | 2.6 | 0.00 | 0.01 | 0.00 | 84 | 1016.0 |
| 20260509025408 | 60 | 307 | 1.7 | 2.6 | 0.00 | 0.01 | 0.00 | 84 | 1015.9 |
| 20260509024907 | 60 | 294 | 0.9 | 2.6 | 0.00 | 0.01 | 0.00 | 84 | 1015.8 |
| 20260509024417 | 60 | 294 | 0.9 | 1.7 | 0.00 | 0.01 | 0.00 | 84 | 1015.7 |
| 20260509023910 | 60 | 294 | 0.0 | 2.6 | 0.00 | 0.01 | 0.00 | 84 | 1015.7 |
| 20260509023408 | 60 | 294 | 0.9 | 2.6 | 0.00 | 0.01 | 0.00 | 84 | 1015.7 |
| 20260509022408 | 60 | 284 | 0.9 | 2.6 | 0.00 | 0.01 | 0.00 | 83 | 1015.6 |
| 20260509021908 | 60 | 283 | 0.0 | 0.0 | 0.00 | 0.01 | 0.00 | 83 | 1015.6 |
| 20260509020909 | 60 | 283 | 0.0 | 0.9 | 0.00 | 0.01 | 0.00 | 83 | 1015.5 |
| 20260509020408 | 60 | 287 | 0.9 | 2.6 | 0.00 | 0.01 | 0.00 | 83 | 1015.5 |
| 20260509015907 | 60 | 11 | 0.9 | 2.6 | 0.00 | 0.01 | 0.00 | 83 | 1015.5 |
| 20260509015408 | 60 | 297 | 1.7 | 2.6 | 0.00 | 0.01 | 0.00 | 83 | 1015.4 |
| 20260509014906 | 60 | 324 | 0.9 | 2.6 | 0.00 | 0.01 | 0.00 | 83 | 1015.4 |
| 20260509014414 | 60 | 298 | 1.7 | 1.7 | 0.00 | 0.01 | 0.00 | 83 | 1015.4 |
| 20260509013907 | 60 | 298 | 0.9 | 2.6 | 0.00 | 0.01 | 0.00 | 83 | 1015.4 |
| 20260509013408 | 60 | 254 | 0.9 | 1.7 | 0.00 | 0.01 | 0.00 | 83 | 1015.4 |
| 20260509012907 | 60 | 278 | 0.9 | 1.7 | 0.00 | 0.01 | 0.00 | 83 | 1015.4 |
| 20260509012433 | 60 | 262 | 1.7 | 1.7 | 0.00 | 0.01 | 0.00 | 83 | 1015.4 |
| 20260509011912 | 60 | 255 | 1.7 | 2.6 | 0.00 | 0.01 | 0.00 | 83 | 1015.4 |
| 20260509011408 | 60 | 253 | 0.0 | 1.7 | 0.00 | 0.01 | 0.00 | 83 | 1015.4 |
| 20260509010408 | 60 | 275 | 1.7 | 2.6 | 0.00 | 0.01 | 0.00 | 83 | 1015.5 |
| 20260509005908 | 60 | 238 | 1.7 | 2.6 | 0.00 | 0.01 | 0.00 | 83 | 1015.5 |
| 20260509004909 | 60 | 280 | 0.9 | 2.6 | 0.00 | 0.01 | 0.00 | 83 | 1015.6 |
| 20260509004408 | 60 | 260 | 1.7 | 1.7 | 0.00 | 0.01 | 0.00 | 83 | 1015.6 |
| 20260509003908 | 60 | 298 | 0.9 | 2.6 | 0.00 | 0.01 | 0.00 | 83 | 1015.6 |
| 20260509003408 | 60 | 312 | 0.9 | 2.6 | 0.00 | 0.01 | 0.00 | 83 | 1015.6 |
| 20260509002908 | 60 | 294 | 1.7 | 2.6 | 0.00 | 0.01 | 0.00 | 83 | 1015.6 |
| 20260509002407 | 60 | 298 | 0.9 | 1.7 | 0.00 | 0.01 | 0.00 | 83 | 1015.5 |
| 20260509001408 | 60 | 299 | 1.7 | 2.6 | 0.00 | 0.01 | 0.00 | 83 | 1015.4 |
| 20260509000907 | 60 | 279 | 1.7 | 2.6 | 0.00 | 0.01 | 0.00 | 83 | 1015.4 |
| 20260509000407 | 60 | 309 | 1.7 | 1.7 | 0.00 | 0.01 | 0.00 | 83 | 1015.3 |
| 20260508235908 | 60 | 297 | 1.7 | 2.6 | 0.00 | 0.01 | 0.00 | 84 | 1015.3 |
| 20260508235407 | 60 | 319 | 0.9 | 1.7 | 0.00 | 0.01 | 0.00 | 84 | 1015.3 |
| 20260508234907 | 60 | 330 | 0.9 | 1.7 | 0.00 | 0.01 | 0.00 | 84 | 1015.4 |
| 20260508234407 | 60 | 18 | 0.0 | 0.9 | 0.00 | 0.01 | 0.00 | 84 | 1015.4 |
| 20260508233407 | 60 | 18 | 0.0 | 0.9 | 0.00 | 0.01 | 0.00 | 83 | 1015.4 |
| 20260508232407 | 60 | 18 | 0.0 | 2.6 | 0.00 | 0.01 | 0.00 | 83 | 1015.5 |
| 20260508231908 | 60 | 40 | 0.0 | 1.7 | 0.00 | 0.01 | 0.00 | 83 | 1015.5 |
| 20260508231407 | 60 | 48 | 0.9 | 1.7 | 0.00 | 0.01 | 0.00 | 83 | 1015.6 |
| 20260508230906 | 60 | 327 | 0.9 | 2.6 | 0.00 | 0.01 | 0.00 | 83 | 1015.5 |
| 20260508230407 | 61 | 136 | 0.9 | 2.6 | 0.00 | 0.01 | 0.00 | 83 | 1015.6 |
| 20260508225908 | 61 | 49 | 0.9 | 2.6 | 0.00 | 0.01 | 0.00 | 83 | 1015.6 |
| 20260508225407 | 61 | 41 | 1.7 | 2.6 | 0.00 | 0.01 | 0.00 | 83 | 1015.6 |
| 20260508224906 | 61 | 312 | 0.9 | 2.6 | 0.00 | 0.01 | 0.00 | 83 | 1015.7 |
| 20260508223908 | 61 | 48 | 1.7 | 2.6 | 0.00 | 0.01 | 0.00 | 83 | 1015.8 |
| 20260508222909 | 61 | 49 | 1.7 | 2.6 | 0.00 | 0.01 | 0.00 | 84 | 1015.7 |
| 20260508222408 | 61 | 48 | 0.9 | 2.6 | 0.00 | 0.01 | 0.00 | 84 | 1015.8 |
| 20260508221908 | 61 | 104 | 0.0 | 2.6 | 0.00 | 0.01 | 0.00 | 84 | 1015.7 |
| 20260508221407 | 61 | 49 | 0.9 | 1.7 | 0.00 | 0.01 | 0.00 | 83 | 1015.7 |
| 20260508220907 | 61 | 53 | 0.9 | 1.7 | 0.00 | 0.01 | 0.00 | 83 | 1015.7 |
| 20260508215907 | 61 | 282 | 0.9 | 2.6 | 0.00 | 0.02 | 0.00 | 83 | 1015.6 |
| 20260508215407 | 61 | 293 | 1.7 | 2.6 | 0.00 | 0.02 | 0.17 | 83 | 1015.5 |
| 20260508214907 | 61 | 340 | 0.9 | 2.6 | 0.00 | 0.02 | 0.17 | 83 | 1015.5 |
| 20260508213907 | 61 | 23 | 0.0 | 0.0 | 0.00 | 0.02 | 0.17 | 83 | 1015.5 |
| 20260508212907 | 61 | 23 | 0.9 | 2.6 | 0.00 | 0.02 | 0.17 | 83 | 1015.4 |
| 20260508212407 | 61 | 293 | 0.9 | 1.7 | 0.00 | 0.02 | 0.17 | 83 | 1015.3 |
| 20260508211907 | 61 | 316 | 0.9 | 1.7 | 0.00 | 0.02 | 0.17 | 83 | 1015.2 |
| 20260508211407 | 61 | 330 | 0.0 | 2.6 | 0.00 | 0.02 | 0.17 | 83 | 1015.2 |
| 20260508210407 | 61 | 300 | 0.9 | 2.6 | 0.00 | 0.02 | 0.17 | 83 | 1015.2 |
| 20260508205908 | 61 | 321 | 0.9 | 2.6 | 0.00 | 0.02 | 0.17 | 83 | 1015.1 |
| 20260508205406 | 61 | 44 | 0.9 | 1.7 | 0.00 | 0.02 | 0.17 | 84 | 1015.0 |
| 20260508204909 | 61 | 335 | 0.9 | 2.6 | 0.00 | 0.02 | 0.17 | 84 | 1015.0 |
| 20260508204408 | 61 | 314 | 1.7 | 2.6 | 0.00 | 0.02 | 0.17 | 84 | 1015.0 |
| 20260508203908 | 61 | 305 | 1.7 | 2.6 | 0.00 | 0.02 | 0.17 | 84 | 1015.1 |
| 20260508203407 | 61 | 9 | 0.9 | 2.6 | 0.00 | 0.02 | 0.17 | 83 | 1015.0 |
| 20260508202907 | 61 | 313 | 0.9 | 2.6 | 0.00 | 0.02 | 0.17 | 83 | 1014.9 |
| 20260508202411 | 61 | 335 | 2.6 | 2.6 | 0.00 | 0.02 | 0.17 | 83 | 1014.9 |
| 20260508201908 | 61 | 336 | 1.7 | 2.6 | 0.00 | 0.02 | 0.17 | 82 | 1014.9 |
| 20260508201407 | 62 | 299 | 1.7 | 2.6 | 0.00 | 0.02 | 0.17 | 82 | 1015.0 |
| 20260508200909 | 62 | 318 | 1.7 | 2.6 | 0.00 | 0.02 | 0.17 | 82 | 1015.1 |
| 20260508200407 | 62 | 340 | 0.9 | 2.6 | 0.00 | 0.02 | 0.17 | 82 | 1015.0 |
| 20260508195908 | 62 | 313 | 1.7 | 2.6 | 0.00 | 0.02 | 0.17 | 81 | 1014.9 |
| 20260508195407 | 62 | 256 | 0.9 | 2.6 | 0.00 | 0.02 | 0.17 | 82 | 1014.9 |
| 20260508194410 | 62 | 77 | 1.7 | 2.6 | 0.00 | 0.02 | 0.17 | 82 | 1014.8 |
| 20260508193408 | 62 | 332 | 0.9 | 2.6 | 0.00 | 0.02 | 0.17 | 82 | 1014.6 |
| 20260508192909 | 62 | 336 | 1.7 | 2.6 | 0.00 | 0.02 | 0.17 | 82 | 1014.5 |
| 20260508192407 | 62 | 298 | 1.7 | 2.6 | 0.00 | 0.02 | 0.17 | 82 | 1014.4 |
| 20260508191908 | 62 | 311 | 2.6 | 2.6 | 0.00 | 0.02 | 0.17 | 82 | 1014.4 |
| 20260508191407 | 63 | 312 | 2.6 | 2.6 | 0.00 | 0.02 | 0.17 | 81 | 1014.4 |
| 20260508190908 | 63 | 9 | 1.7 | 2.6 | 0.00 | 0.02 | 0.17 | 81 | 1014.2 |
| 20260508185408 | 63 | 312 | 1.7 | 2.6 | 0.00 | 0.02 | 0.17 | 81 | 1014.0 |
| 20260508184907 | 63 | 289 | 0.9 | 2.6 | 0.00 | 0.02 | 0.17 | 81 | 1013.8 |
| 20260508184408 | 63 | 329 | 0.9 | 4.3 | 0.00 | 0.02 | 0.17 | 81 | 1013.7 |
| 20260508183908 | 63 | 302 | 1.7 | 4.3 | 0.00 | 0.02 | 0.17 | 81 | 1013.5 |
| 20260508182907 | 63 | 307 | 1.7 | 2.6 | 0.00 | 0.02 | 0.17 | 81 | 1013.3 |
| 20260508181907 | 64 | 280 | 1.7 | 4.3 | 0.00 | 0.02 | 0.17 | 81 | 1013.0 |
| 20260508180908 | 64 | 268 | 1.7 | 2.6 | 0.00 | 0.03 | 0.17 | 82 | 1012.9 |
| 20260508180407 | 64 | 268 | 1.7 | 2.6 | 0.00 | 0.03 | 0.17 | 82 | 1012.8 |
| 20260508175907 | 64 | 278 | 1.7 | 2.6 | 0.00 | 0.03 | 0.17 | 82 | 1012.7 |
| 20260508175407 | 64 | 293 | 1.7 | 2.6 | 0.00 | 0.04 | 0.17 | 80 | 1012.7 |
| 20260508174907 | 64 | 260 | 0.9 | 2.6 | 0.00 | 0.04 | 0.17 | 79 | 1012.6 |
| 20260508174407 | 64 | 283 | 1.7 | 2.6 | 0.00 | 0.04 | 0.17 | 79 | 1012.5 |
| 20260508173908 | 64 | 310 | 1.7 | 2.6 | 0.00 | 0.04 | 0.17 | 79 | 1012.5 |
| 20260508173408 | 64 | 299 | 1.7 | 2.6 | 0.00 | 0.04 | 0.17 | 79 | 1012.4 |
| 20260508172907 | 64 | 294 | 1.7 | 2.6 | 0.00 | 0.04 | 0.17 | 79 | 1012.4 |
| 20260508172414 | 64 | 299 | 1.7 | 2.6 | 0.00 | 0.04 | 0.17 | 79 | 1012.3 |
| 20260508171908 | 65 | 289 | 1.7 | 2.6 | 0.00 | 0.04 | 0.17 | 79 | 1012.3 |
| 20260508171407 | 65 | 258 | 1.7 | 2.6 | 0.00 | 0.04 | 0.17 | 79 | 1012.1 |
| 20260508170907 | 65 | 284 | 1.7 | 2.6 | 0.00 | 0.04 | 0.17 | 79 | 1012.1 |
| 20260508170408 | 65 | 257 | 1.7 | 2.6 | 0.00 | 0.04 | 0.17 | 79 | 1012.1 |
| 20260508165407 | 65 | 269 | 1.7 | 2.6 | 0.00 | 0.04 | 0.17 | 80 | 1011.9 |
| 20260508164907 | 65 | 259 | 1.7 | 2.6 | 0.00 | 0.04 | 0.17 | 80 | 1011.8 |
| 20260508164407 | 65 | 278 | 1.7 | 2.6 | 0.00 | 0.04 | 0.17 | 80 | 1011.8 |
| 20260508163407 | 65 | 258 | 2.6 | 2.6 | 0.00 | 0.04 | 0.17 | 79 | 1011.7 |
| 20260508162907 | 65 | 265 | 1.7 | 2.6 | 0.00 | 0.04 | 0.17 | 80 | 1011.6 |
| 20260508162408 | 65 | 249 | 1.7 | 2.6 | 0.00 | 0.05 | 0.17 | 80 | 1011.5 |
| 20260508161407 | 65 | 263 | 2.6 | 5.2 | 0.00 | 0.10 | 0.17 | 81 | 1011.4 |
| 20260508160907 | 65 | 280 | 2.6 | 5.2 | 0.00 | 0.10 | 0.17 | 81 | 1011.3 |
| 20260508160407 | 65 | 259 | 2.6 | 2.6 | 0.00 | 0.11 | 0.17 | 82 | 1011.3 |
| 20260508155907 | 65 | 269 | 2.6 | 5.2 | 0.00 | 0.11 | 0.17 | 81 | 1011.3 |
| 20260508155407 | 65 | 262 | 2.6 | 5.2 | 0.00 | 0.11 | 0.17 | 81 | 1011.3 |
| 20260508154907 | 65 | 267 | 2.6 | 2.6 | 0.00 | 0.12 | 0.17 | 81 | 1011.2 |
| 20260508154408 | 65 | 248 | 2.6 | 2.6 | 0.00 | 0.12 | 0.17 | 81 | 1011.2 |
| 20260508153407 | 65 | 259 | 2.6 | 2.6 | 0.00 | 0.12 | 0.17 | 81 | 1011.2 |
| 20260508152906 | 65 | 262 | 2.6 | 5.2 | 0.00 | 0.12 | 0.17 | 81 | 1011.1 |
| 20260508152408 | 65 | 266 | 2.6 | 2.6 | 0.00 | 0.12 | 0.17 | 81 | 1011.1 |
| 20260508151906 | 65 | 259 | 2.6 | 5.2 | 0.00 | 0.12 | 0.17 | 81 | 1011.1 |
| 20260508151407 | 65 | 254 | 2.6 | 5.2 | 0.00 | 0.12 | 0.17 | 81 | 1011.1 |
| 20260508150907 | 65 | 258 | 2.6 | 2.6 | 0.00 | 0.12 | 0.17 | 80 | 1011.0 |
| 20260508150407 | 65 | 260 | 2.6 | 5.2 | 0.00 | 0.12 | 0.17 | 82 | 1010.9 |